• în România
  • Lista ţărilor
  • Pe 7 zile
  • Temperatura apei
  • Hartă satelitară
  • Meteo pe hartă
  • Widget-uri
  • user-avatar
    Intrare

    Meteo pe oră la Salgotarjan

    Astăzi, 17 August, Vineri

    Timp Temperatura Precipitaţii Vânt Presiune Umiditate
    00:00 +18°C° 0 mm 2 m/s 732 mmHg 80%
    01:00 +18°C° 0 mm 2 m/s 732 mmHg 82%
    02:00 +19°C° 0 mm 1 m/s 732 mmHg 83%
    03:00 +18°C° 0 mm 1 m/s 732 mmHg 83%
    04:00 +18°C° 0 mm 1 m/s 732 mmHg 84%
    05:00 +19°C° 0 mm 1 m/s 732 mmHg 79%
    06:00 +21°C° 0 mm 1 m/s 732 mmHg 74%
    07:00 +22°C° 0 mm 1 m/s 732 mmHg 69%
    08:00 +24°C° 0 mm 1 m/s 732 mmHg 62%
    09:00 +26°C° 0 mm 1 m/s 732 mmHg 55%
    10:00 +29°C° 0 mm 1 m/s 733 mmHg 47%
    11:00 +27°C° 0 mm 0 m/s 732 mmHg 45%
    12:00 +28°C° 0 mm 0 m/s 732 mmHg 42%
    13:00 +29°C° 0 mm 0 m/s 732 mmHg 39%
    14:00 +31°C° 0,1 mm 1 m/s 732 mmHg 39%
    15:00 +30°C° 0,1 mm 1 m/s 732 mmHg 40%
    16:00 +30°C° 0,1 mm 1 m/s 732 mmHg 40%
    17:00 +28°C° 0 mm 1 m/s 731 mmHg 46%
    18:00 +26°C° 0 mm 1 m/s 731 mmHg 51%
    19:00 +24°C° 0 mm 1 m/s 731 mmHg 57%
    20:00 +24°C° 0 mm 1 m/s 731 mmHg 60%
    21:00 +23°C° 0 mm 1 m/s 732 mmHg 62%
    22:00 +22°C° 0 mm 1 m/s 732 mmHg 65%
    23:00 +21°C° 0 mm 1 m/s 732 mmHg 67%

    Mâine, 18 August, Sâmbătă

    Timp Temperatura Precipitaţii Vânt Presiune Umiditate
    00:00 +21°C° 0 mm 1 m/s 732 mmHg 69%
    01:00 +20°C° 0 mm 1 m/s 732 mmHg 71%
    02:00 +20°C° 0 mm 1 m/s 732 mmHg 72%
    03:00 +20°C° 0 mm 1 m/s 732 mmHg 74%
    04:00 +19°C° 0 mm 1 m/s 733 mmHg 75%
    05:00 +21°C° 0 mm 1 m/s 733 mmHg 71%
    06:00 +22°C° 0 mm 1 m/s 733 mmHg 68%
    07:00 +23°C° 0 mm 1 m/s 733 mmHg 64%
    08:00 +25°C° 0 mm 1 m/s 734 mmHg 57%
    09:00 +28°C° 0 mm 1 m/s 734 mmHg 50%
    10:00 +30°C° 0 mm 1 m/s 734 mmHg 43%
    11:00 +30°C° 0 mm 1 m/s 734 mmHg 40%
    12:00 +31°C° 0 mm 1 m/s 734 mmHg 37%
    13:00 +32°C° 0 mm 1 m/s 734 mmHg 35%
    14:00 +32°C° 0 mm 1 m/s 734 mmHg 35%
    15:00 +31°C° 0 mm 1 m/s 733 mmHg 36%
    16:00 +31°C° 0 mm 1 m/s 733 mmHg 37%
    17:00 +29°C° 0 mm 1 m/s 733 mmHg 42%
    18:00 +27°C° 0 mm 1 m/s 733 mmHg 47%
    19:00 +25°C° 0 mm 1 m/s 733 mmHg 52%
    20:00 +24°C° 0 mm 1 m/s 733 mmHg 55%
    21:00 +24°C° 0 mm 1 m/s 734 mmHg 59%
    22:00 +23°C° 0 mm 2 m/s 734 mmHg 62%
    23:00 +21°C° 0 mm 2 m/s 734 mmHg 64%

    Poimâine, 19 August, Duminică

    Timp Temperatura Precipitaţii Vânt Presiune Umiditate
    00:00 +21°C° 0 mm 2 m/s 734 mmHg 67%
    01:00 +20°C° 0 mm 2 m/s 734 mmHg 69%
    02:00 +20°C° 0 mm 2 m/s 734 mmHg 70%
    03:00 +21°C° 0 mm 1 m/s 734 mmHg 71%
    04:00 +20°C° 0 mm 1 m/s 734 mmHg 73%
    05:00 +21°C° 0 mm 1 m/s 734 mmHg 69%
    06:00 +23°C° 0 mm 1 m/s 734 mmHg 66%
    07:00 +24°C° 0 mm 1 m/s 734 mmHg 62%
    08:00 +26°C° 0 mm 1 m/s 735 mmHg 56%
    09:00 +28°C° 0 mm 2 m/s 735 mmHg 49%
    10:00 +30°C° 0 mm 2 m/s 735 mmHg 42%
    11:00 +30°C° 0 mm 2 m/s 735 mmHg 40%
    12:00 +31°C° 0 mm 2 m/s 734 mmHg 38%
    13:00 +32°C° 0 mm 2 m/s 734 mmHg 36%
    14:00 +31°C° 0 mm 2 m/s 734 mmHg 37%
    15:00 +31°C° 0 mm 2 m/s 734 mmHg 38%
    16:00 +31°C° 0 mm 2 m/s 733 mmHg 39%
    17:00 +29°C° 0 mm 2 m/s 733 mmHg 44%
    18:00 +27°C° 0 mm 2 m/s 733 mmHg 50%
    19:00 +25°C° 0 mm 2 m/s 733 mmHg 56%
    20:00 +24°C° 0 mm 2 m/s 733 mmHg 61%
    21:00 +23°C° 0 mm 2 m/s 733 mmHg 65%
    22:00 +21°C° 0 mm 2 m/s 733 mmHg 70%
    23:00 +21°C° 0 mm 2 m/s 733 mmHg 72%

    20 August, Luni

    Timp Temperatura Precipitaţii Vânt Presiune Umiditate
    00:00 +20°C° 0 mm 2 m/s 733 mmHg 74%
    01:00 +20°C° 0 mm 2 m/s 733 mmHg 76%
    02:00 +19°C° 0 mm 2 m/s 733 mmHg 77%
    03:00 +19°C° 0 mm 2 m/s 733 mmHg 78%
    04:00 +19°C° 0 mm 2 m/s 733 mmHg 79%
    05:00 +20°C° 0 mm 2 m/s 733 mmHg 74%
    06:00 +21°C° 0 mm 2 m/s 733 mmHg 70%
    07:00 +23°C° 0 mm 2 m/s 733 mmHg 65%
    08:00 +25°C° 0 mm 2 m/s 733 mmHg 58%
    09:00 +27°C° 0 mm 3 m/s 733 mmHg 51%
    10:00 +29°C° 0 mm 3 m/s 734 mmHg 44%
    11:00 +30°C° 0 mm 3 m/s 733 mmHg 42%
    12:00 +31°C° 0 mm 2 m/s 733 mmHg 40%
    13:00 +31°C° 0 mm 2 m/s 733 mmHg 37%
    14:00 +31°C° 0 mm 2 m/s 733 mmHg 38%
    15:00 +31°C° 0 mm 2 m/s 732 mmHg 38%
    16:00 +31°C° 0 mm 2 m/s 732 mmHg 38%
    17:00 +29°C° 0 mm 2 m/s 732 mmHg 43%
    18:00 +27°C° 0 mm 2 m/s 732 mmHg 49%
    19:00 +25°C° 0 mm 1 m/s 732 mmHg 54%
    20:00 +25°C° 0 mm 2 m/s 732 mmHg 59%
    21:00 +24°C° 0 mm 2 m/s 732 mmHg 63%
    22:00 +23°C° 0 mm 2 m/s 733 mmHg 68%
    23:00 +21°C° 0 mm 2 m/s 733 mmHg 71%

    21 August, Marţi

    Timp Temperatura Precipitaţii Vânt Presiune Umiditate
    00:00 +21°C° 0 mm 2 m/s 733 mmHg 74%
    01:00 +20°C° 0 mm 2 m/s 733 mmHg 78%
    02:00 +20°C° 0 mm 2 m/s 733 mmHg 79%
    03:00 +21°C° 0 mm 1 m/s 733 mmHg 80%
    04:00 +20°C° 0 mm 1 m/s 733 mmHg 81%
    05:00 +22°C° 0 mm 1 m/s 733 mmHg 76%
    06:00 +23°C° 0 mm 1 m/s 733 mmHg 72%
    07:00 +24°C° 0 mm 1 m/s 733 mmHg 67%
    08:00 +26°C° 0 mm 1 m/s 734 mmHg 60%
    09:00 +29°C° 0 mm 1 m/s 734 mmHg 52%
    10:00 +31°C° 0 mm 1 m/s 734 mmHg 45%
    11:00 +32°C° 0 mm 1 m/s 734 mmHg 42%
    12:00 +32°C° 0 mm 1 m/s 733 mmHg 39%
    13:00 +33°C° 0 mm 1 m/s 733 mmHg 36%
    14:00 +33°C° 0 mm 1 m/s 733 mmHg 36%
    15:00 +32°C° 0 mm 1 m/s 733 mmHg 36%
    16:00 +32°C° 0 mm 1 m/s 733 mmHg 37%
    17:00 +30°C° 0 mm 1 m/s 733 mmHg 41%
    18:00 +26°C° 0 mm 0 m/s 733 mmHg 45%
    19:00 +25°C° 0 mm 0 m/s 733 mmHg 49%
    20:00 +24°C° 0 mm 0 m/s 733 mmHg 52%
    21:00 +25°C° 0 mm 1 m/s 733 mmHg 54%
    22:00 +24°C° 0 mm 1 m/s 733 mmHg 56%
    23:00 +24°C° 0 mm 1 m/s 733 mmHg 58%

    22 August, Miercuri

    Timp Temperatura Precipitaţii Vânt Presiune Umiditate
    00:00 +23°C° 0 mm 1 m/s 733 mmHg 61%
    01:00 +23°C° 0 mm 1 m/s 733 mmHg 64%
    02:00 +23°C° 0 mm 1 m/s 733 mmHg 66%
    03:00 +22°C° 0 mm 1 m/s 733 mmHg 68%
    04:00 +22°C° 0 mm 1 m/s 733 mmHg 70%
    05:00 +23°C° 0 mm 1 m/s 733 mmHg 68%
    06:00 +24°C° 0 mm 1 m/s 733 mmHg 67%
    07:00 +25°C° 0 mm 1 m/s 734 mmHg 65%
    08:00 +26°C° 0 mm 1 m/s 734 mmHg 60%
    09:00 +28°C° 0 mm 1 m/s 734 mmHg 54%
    10:00 +30°C° 0 mm 1 m/s 734 mmHg 48%
    11:00 +31°C° 0,1 mm 1 m/s 733 mmHg 44%
    12:00 +32°C° 0,1 mm 1 m/s 733 mmHg 39%
    13:00 +33°C° 0,1 mm 1 m/s 733 mmHg 35%
    14:00 +33°C° 0 mm 1 m/s 733 mmHg 36%
    15:00 +32°C° 0 mm 1 m/s 732 mmHg 38%
    16:00 +32°C° 0 mm 1 m/s 732 mmHg 39%
    17:00 +28°C° 0 mm 0 m/s 732 mmHg 43%
    18:00 +26°C° 0 mm 0 m/s 732 mmHg 46%
    19:00 +25°C° 0 mm 0 m/s 732 mmHg 50%
    20:00 +24°C° 0,1 mm 0 m/s 732 mmHg 53%
    21:00 +25°C° 0,1 mm 1 m/s 732 mmHg 56%
    22:00 +24°C° 0,1 mm 1 m/s 732 mmHg 59%
    23:00 +24°C° 0,1 mm 1 m/s 732 mmHg 62%
    Arată mai mult